Location: Ottawa (KS)
(38.6160°N, 95.2680°W)
Time: 16:39:08
(UTC-05:00)

Tiangong 2 - Visible Passes

Search period start: 21 August 2018 00:00
Search period end: 31 August 2018 00:00
Orbit: 384 x 395 km, 42.8° (Epoch: 20 August)

Date Brightness Start Highest point End Pass type
(mag) Time Alt. Az. Time Alt. Az. Time Alt. Az.
21 Aug 3.1 04:21:05 29° ENE 04:21:05 29° ENE 04:22:48 10° ENE visible
21 Aug 2.3 05:53:41 10° WNW 05:56:42 37° N 05:59:43 10° ENE visible
22 Aug 2.0 04:58:09 37° NW 04:58:41 41° N 05:01:45 10° ENE visible
23 Aug 4.1 04:02:56 17° ENE 04:02:56 17° ENE 04:03:50 10° ENE visible
23 Aug 2.4 05:35:16 13° WNW 05:37:54 37° N 05:40:55 10° ENE visible
24 Aug 2.5 04:40:06 36° N 04:40:06 36° N 04:42:52 10° ENE visible
24 Aug 1.7 06:13:52 10° WNW 06:17:01 58° NNE 06:20:12 10° E visible
25 Aug 2.1 05:17:19 22° NW 05:19:02 44° N 05:22:08 10° E visible
26 Aug 3.4 04:22:20 25° NE 04:22:20 25° NE 04:24:01 10° ENE visible
26 Aug 1.0 05:54:52 10° WNW 05:58:03 88° SSW 06:01:16 10° ESE visible
27 Aug 1.4 04:59:50 58° NNW 05:00:07 61° NNE 05:03:17 10° E visible
28 Aug 4.5 04:05:10 10° E 04:05:10 10° E 04:05:12 10° E visible
28 Aug 1.3 05:37:32 26° W 05:39:00 48° SSW 05:42:05 10° SE visible
29 Aug 3.3 04:43:06 21° ESE 04:43:06 21° ESE 04:44:17 10° ESE visible
29 Aug 3.0 06:15:44 10° WSW 06:17:35 14° SW 06:19:26 10° S visible
30 Aug 3.0 05:21:18 18° S 05:21:18 18° S 05:22:30 10° SSE visible
